Location: *
(46.0770°N, 1.6444°E)
Time: 03:09:18
(UTC+00:00)

Cosmos 1959 Rocket - Pass Details

Date: 16 September 2019
Orbit: 947 x 997 km, 82.9° (Epoch: 20 October)

Event Time Altitude Azimuth Distance (km) Brightness Sun altitude
Rises 20:08:25 0° 352° (N) 3,630 8.0 -21.5°
Reaches altitude 10° 20:10:55 10° 355° (N) 2,683 7.2 -21.9°
Maximum altitude 20:17:03 72° 80° (E) 1,000 4.3 -22.8°
Enters shadow 20:19:08 43° 152° (SSE) 1,313 4.8 -23.1°
